• In Germany
  • List of Countries
  • For 7 days
  • Water Temperature
  • Satellite Maps
  • Weather Map
  • Weather Widgets
  • user-avatar
    Login

    Hourly Weather Ara-Kiret

    Today, 23 April, Monday

    Time Temperature Precipitation Wind Pressure Humidity
    00:00 +6°C° 0 mm 2 mps 692 mmHg 39%
    01:00 +5°C° 0 mm 3 mps 692 mmHg 40%
    02:00 +4°C° 0 mm 3 mps 692 mmHg 41%
    03:00 +4°C° 0 mm 3 mps 692 mmHg 42%
    04:00 +4°C° 0 mm 3 mps 692 mmHg 43%
    05:00 +5°C° 0 mm 4 mps 692 mmHg 40%
    06:00 +7°C° 0 mm 4 mps 692 mmHg 36%
    07:00 +10°C° 0 mm 4 mps 692 mmHg 34%
    08:00 +12°C° 0 mm 5 mps 692 mmHg 31%
    09:00 +14°C° 0 mm 5 mps 692 mmHg 28%
    10:00 +16°C° 0 mm 6 mps 692 mmHg 25%
    11:00 +17°C° 0 mm 6 mps 692 mmHg 23%
    12:00 +19°C° 0 mm 5 mps 691 mmHg 21%
    13:00 +20°C° 0 mm 5 mps 691 mmHg 20%
    14:00 +20°C° 0 mm 5 mps 691 mmHg 19%
    15:00 +20°C° 0 mm 4 mps 691 mmHg 19%
    16:00 +20°C° 0 mm 4 mps 691 mmHg 19%
    17:00 +18°C° 0 mm 3 mps 690 mmHg 23%
    18:00 +15°C° 0 mm 2 mps 690 mmHg 27%
    19:00 +13°C° 0 mm 1 mps 690 mmHg 32%
    20:00 +12°C° 0 mm 2 mps 690 mmHg 34%
    21:00 +10°C° 0 mm 2 mps 690 mmHg 36%
    22:00 +9°C° 0 mm 2 mps 690 mmHg 38%
    23:00 +9°C° 0 mm 2 mps 690 mmHg 39%

    Tomorrow, 24 April, Tuesday

    Time Temperature Precipitation Wind Pressure Humidity
    00:00 +8°C° 0 mm 2 mps 690 mmHg 41%
    01:00 +8°C° 0 mm 2 mps 689 mmHg 42%
    02:00 +7°C° 0 mm 2 mps 689 mmHg 43%
    03:00 +7°C° 0 mm 2 mps 689 mmHg 44%
    04:00 +6°C° 0 mm 2 mps 689 mmHg 45%
    05:00 +8°C° 0 mm 2 mps 688 mmHg 42%
    06:00 +10°C° 0 mm 3 mps 688 mmHg 38%
    07:00 +11°C° 0 mm 3 mps 688 mmHg 34%
    08:00 +14°C° 0 mm 3 mps 688 mmHg 29%
    09:00 +17°C° 0 mm 4 mps 688 mmHg 25%
    10:00 +20°C° 0 mm 5 mps 687 mmHg 20%
    11:00 +21°C° 0 mm 5 mps 687 mmHg 18%
    12:00 +22°C° 0 mm 5 mps 686 mmHg 16%
    13:00 +24°C° 0 mm 6 mps 686 mmHg 14%
    14:00 +24°C° 0 mm 6 mps 685 mmHg 14%
    15:00 +24°C° 0 mm 6 mps 685 mmHg 14%
    16:00 +24°C° 0 mm 6 mps 684 mmHg 15%
    17:00 +22°C° 0 mm 5 mps 684 mmHg 18%
    18:00 +19°C° 0 mm 4 mps 683 mmHg 22%
    19:00 +17°C° 0 mm 3 mps 683 mmHg 25%
    20:00 +16°C° 0 mm 2 mps 683 mmHg 27%
    21:00 +15°C° 0 mm 2 mps 683 mmHg 29%
    22:00 +13°C° 0 mm 2 mps 683 mmHg 31%
    23:00 +12°C° 0 mm 2 mps 683 mmHg 33%

    Day after tomorrow, 25 April, Wednesday

    Time Temperature Precipitation Wind Pressure Humidity
    00:00 +12°C° 0 mm 2 mps 683 mmHg 35%
    01:00 +10°C° 0 mm 2 mps 683 mmHg 36%
    02:00 +9°C° 0 mm 2 mps 684 mmHg 43%
    03:00 +8°C° 0 mm 2 mps 684 mmHg 49%
    04:00 +8°C° 0 mm 2 mps 685 mmHg 56%
    05:00 +9°C° 0 mm 3 mps 685 mmHg 57%
    06:00 +10°C° 0 mm 3 mps 686 mmHg 58%
    07:00 +11°C° 0 mm 4 mps 687 mmHg 58%
    08:00 +12°C° 0 mm 4 mps 687 mmHg 53%
    09:00 +13°C° 0 mm 4 mps 687 mmHg 48%
    10:00 +14°C° 0 mm 4 mps 687 mmHg 43%
    11:00 +15°C° 0 mm 4 mps 687 mmHg 40%
    12:00 +17°C° 0 mm 4 mps 687 mmHg 36%
    13:00 +18°C° 0 mm 4 mps 687 mmHg 32%
    14:00 +18°C° 0 mm 3 mps 687 mmHg 31%
    15:00 +18°C° 0 mm 3 mps 687 mmHg 30%
    16:00 +18°C° 0 mm 3 mps 687 mmHg 30%
    17:00 +16°C° 0 mm 2 mps 686 mmHg 34%
    18:00 +14°C° 0 mm 1 mps 686 mmHg 39%
    19:00 +12°C° 0 mm 1 mps 686 mmHg 44%
    20:00 +12°C° 0 mm 1 mps 686 mmHg 46%
    21:00 +11°C° 0 mm 1 mps 686 mmHg 48%
    22:00 +9°C° 0 mm 2 mps 686 mmHg 49%
    23:00 +9°C° 0 mm 2 mps 686 mmHg 51%

    26 April, Thursday

    Time Temperature Precipitation Wind Pressure Humidity
    00:00 +8°C° 0 mm 2 mps 686 mmHg 52%
    01:00 +8°C° 0 mm 2 mps 686 mmHg 54%
    02:00 +7°C° 0 mm 2 mps 686 mmHg 54%
    03:00 +7°C° 0 mm 2 mps 686 mmHg 55%
    04:00 +7°C° 0 mm 3 mps 686 mmHg 55%
    05:00 +9°C° 0 mm 3 mps 686 mmHg 52%
    06:00 +11°C° 0 mm 3 mps 686 mmHg 48%
    07:00 +12°C° 0 mm 3 mps 687 mmHg 45%
    08:00 +14°C° 0 mm 3 mps 687 mmHg 40%
    09:00 +18°C° 0 mm 3 mps 687 mmHg 36%
    10:00 +20°C° 0 mm 3 mps 688 mmHg 32%
    11:00 +21°C° 0 mm 3 mps 687 mmHg 31%
    12:00 +22°C° 0 mm 3 mps 687 mmHg 29%
    13:00 +24°C° 0 mm 2 mps 687 mmHg 28%
    14:00 +24°C° 0 mm 2 mps 687 mmHg 28%
    15:00 +24°C° 0 mm 2 mps 687 mmHg 28%
    16:00 +24°C° 0 mm 2 mps 687 mmHg 28%
    17:00 +21°C° 0 mm 2 mps 686 mmHg 34%
    18:00 +19°C° 0 mm 2 mps 686 mmHg 39%
    19:00 +17°C° 0 mm 2 mps 686 mmHg 44%
    20:00 +16°C° 0 mm 2 mps 685 mmHg 48%
    21:00 +14°C° 0 mm 1 mps 685 mmHg 51%
    22:00 +13°C° 0 mm 1 mps 685 mmHg 54%
    23:00 +13°C° 0 mm 1 mps 684 mmHg 56%

    27 April, Friday

    Time Temperature Precipitation Wind Pressure Humidity
    00:00 +12°C° 0 mm 1 mps 684 mmHg 57%
    01:00 +11°C° 0 mm 1 mps 684 mmHg 59%
    02:00 +11°C° 0 mm 1 mps 683 mmHg 60%
    03:00 +10°C° 0 mm 1 mps 683 mmHg 60%
    04:00 +10°C° 0 mm 1 mps 683 mmHg 61%
    05:00 +11°C° 0 mm 1 mps 683 mmHg 57%
    06:00 +12°C° 0 mm 2 mps 683 mmHg 53%
    07:00 +14°C° 0 mm 2 mps 684 mmHg 49%
    08:00 +16°C° 0 mm 3 mps 684 mmHg 45%
    09:00 +17°C° 0 mm 3 mps 684 mmHg 41%
    10:00 +19°C° 0 mm 4 mps 684 mmHg 37%
    11:00 +20°C° 0 mm 4 mps 684 mmHg 36%
    12:00 +20°C° 0 mm 4 mps 684 mmHg 35%
    13:00 +21°C° 0 mm 5 mps 684 mmHg 34%
    14:00 +20°C° 0 mm 5 mps 684 mmHg 36%
    15:00 +19°C° 0 mm 6 mps 684 mmHg 38%
    16:00 +17°C° 0 mm 7 mps 684 mmHg 40%
    17:00 +15°C° 0 mm 6 mps 684 mmHg 45%
    18:00 +14°C° 0 mm 5 mps 685 mmHg 49%
    19:00 +12°C° 0 mm 4 mps 685 mmHg 53%
    20:00 +11°C° 0 mm 3 mps 685 mmHg 59%
    21:00 +10°C° 0 mm 3 mps 686 mmHg 64%
    22:00 +9°C° 0 mm 2 mps 686 mmHg 69%
    23:00 +8°C° 0 mm 2 mps 686 mmHg 74%

    28 April, Saturday

    Time Temperature Precipitation Wind Pressure Humidity
    00:00 +8°C° 0 mm 2 mps 686 mmHg 78%
    01:00 +7°C° 0 mm 2 mps 686 mmHg 82%
    02:00 +7°C° 0 mm 2 mps 686 mmHg 83%
    03:00 +8°C° 0 mm 1 mps 686 mmHg 84%
    04:00 +7°C° 0 mm 1 mps 686 mmHg 85%
    05:00 +7°C° 0 mm 2 mps 686 mmHg 82%
    06:00 +7°C° 0 mm 2 mps 686 mmHg 78%
    07:00 +8°C° 0 mm 2 mps 686 mmHg 75%
    08:00 +9°C° 0.1 mm 3 mps 686 mmHg 67%
    09:00 +10°C° 0.1 mm 3 mps 686 mmHg 60%
    10:00 +12°C° 0.1 mm 3 mps 685 mmHg 53%
    11:00 +10°C° 0.6 mm 4 mps 685 mmHg 58%
    12:00 +8°C° 0.6 mm 5 mps 684 mmHg 63%
    13:00 +7°C° 0.6 mm 5 mps 684 mmHg 69%
    14:00 +6°C° 0.7 mm 5 mps 684 mmHg 69%
    15:00 +6°C° 0.7 mm 5 mps 685 mmHg 68%
    16:00 +4°C° 0.7 mm 6 mps 686 mmHg 68%
    17:00 +4°C° 0.1 mm 4 mps 686 mmHg 69%
    18:00 +4°C° 0.1 mm 3 mps 687 mmHg 69%
    19:00 +4°C° 0.1 mm 2 mps 688 mmHg 70%
    20:00 +5°C° 0 mm 1 mps 688 mmHg 72%
    21:00 +4°C° 0 mm 1 mps 688 mmHg 75%
    22:00 +3°C° 0 mm 1 mps 688 mmHg 78%
    23:00 +2°C° 0 mm 1 mps 688 mmHg 79%
    Show more